{"data":{"norad_id":52278,"epoch":"2026-09-19T09:58:08.926176Z","epoch_age_seconds":153225,"freshness":"FRESH","line1":"1 52278U 22041T   26262.41538109 -.00014052  00000+0 -39389-3 0  9990","line2":"2 52278  53.1633 312.4437 0002378  97.8007 262.3266 15.35300918243700","mean_motion":15.35300918,"eccentricity":0.0002378,"inclination_deg":53.1633,"raan_deg":312.4437,"arg_perigee_deg":97.8007,"mean_anomaly_deg":262.3266,"bstar":-0.00039389,"rev_number":24370,"period_min":93.792688007759,"perigee_km":458.40071618664,"apogee_km":461.65294690493,"semimajor_km":6838.1638315458,"source":"CELESTRAK","updated_at":"2026-09-20T09:00:40.014196Z"}}